FENGYUN 1C DEB

Satellite information

Favourite Embed

Satellite Type and Status

DEBRISIN ORBIT

Key statistics

Satellite FENGYUN 1C DEB at a glance.

Uptime

9494

Days in orbit

Revolutions

≈ 14.2

Per day

Orbit

SSO

Sun Synchronous Orbit

Inclination

99.4

Latest

Satellite identification and parameters

Extended collection of information and parameters for FENGYUN 1C DEB.

Object identification

Identified? True

Debris? True

Object name: FENGYUN 1C DEB

International designator: 1999-025DMJ

Object number (NORAD): 35154

Object ID (CCSDS): 35154

Country: PEOPLES REPUBLIC OF CHINA (PRC)

Current information (Y/N): Y

RCS size: SMALL

Orbital parameters

Period: 101.525 minutes

Inclination: 99.4014 deg

SMA: 7209.01 km

Apoapsis: 960.129 km

Periapsis: 701.62 km

RAAN: 230.8678 deg

Eccentricy: 0.0179296

Argument of periapsis: 311.8168 deg

Mean anomaly: 46.781 deg

Mean motion: 14.18369359 rev/day

Mean motion (dot): 0.00000971 rev/day2

B* drag term: 0.00042293 1/REarth

Two-line elements (TLE)

Creation date: May 3, 2025, 5:28 p.m.

Reference frame: TEME

Reference center: EARTH

Epoch: May 3, 2025, 1:46 a.m. UTC

TLE line 0: 0 FENGYUN 1C DEB

TLE line 1: 1 35154U 99025DMJ 25123.07371848 .00000971 00000-0 42293-3 0 9994

TLE line 2: 2 35154 99.4014 230.8678 0179296 311.8168 46.7810 14.18369359614065

Live tracking on map

Real-time ground track for satellite FENGYUN 1C DEB.

In-orbit conjunctions

A list of the most updated potential collisions computed for object FENGYUN 1C DEB.

Target Orbit TCA Probability of collision Miss distance Type
SL-8 R/B LEO 2024-11-09 04:59:34 0.0001502907 233.0 (m) ROCKET BODY
REX 2 SSO 2024-06-05 22:07:54 0.000341898 882.0 (m) PAYLOAD

Associated space launch

Chinese polar orbiting meteorological satellite

FENGYUN 1C DEB was lifted into orbit during the mission ‘Long March 4B | Feng Yun 1C’, on board a Long March 4B space rocket.

The launch took place on May 10, 1999, 1:33 a.m. from Launch Complex 7.

For more information about the launch, click the button.

Launch to space Long March 4B | Feng Yun 1C
Long March 4B | Feng Yun 1C

Agency: N/A

Status: Launch Successful

Launch date: May 10, 1999, 1:33 a.m. UTC

Rocket: Long March 4B

Launch pad: Launch Complex 7

Location: Taiyuan Satellite Launch Center, People's Republic of China

...

Latest news about this satellite

There are no fresh news available about this satellite. Check back as we update our databases every day.


Newsletter sign-up

Weekly statistics, charts and insights to help you stay on top of the space industry.